Weather Roundup
Issued by NWS Chicago, IL

Home | Current Version | Previous Version | Text Only | Print | Product List | Glossary On
Versions: 1 2 3 4 5 6 7 8 9 10 11 12 13 14 15 16 17 18 19 20 21 22 23 24 25 26 27 28 29 30 31 32 33 34 35 36 37 38 39 40 41 42 43 44 45 46 47 48 49 50
000
NZUS59 KLOT 230710
HRRLOT

CHICAGO AREA WEATHER ROUNDUP
NATIONAL WEATHER SERVICE CHICAGO/ROMEOVILLE IL
100 AM CST SUN NOV 23 2014

NOTE: "FAIR" INDICATES FEW OR NO CLOUDS BELOW 12,000 FEET WITH NO
SIGNIFICANT WEATHER AND/OR OBSTRUCTIONS TO VISIBILITY.

* THESE STATIONS ARE NOT UNDER NWS QUALITY CONTROL. THEY ALSO MAY NOT
  REPORT WEATHER SUCH AS PRECIPITATION OR FOG.

ILZ005-006-012>014-019>023-230800-
NORTHEAST ILLINOIS

CITY           SKY/WX    TMP DP  RH WIND       PRES   REMARKS
OHARE          CLOUDY    51  46  83 S16G26    29.82F
MIDWAY         CLOUDY    52  47  83 S12       29.85F
AURORA         CLOUDY    52  46  80 S14       29.82F
LANSING*       CLOUDY    49  46  87 S14       29.87F
JOLIET*        CLOUDY    49  46  87 S9        29.84F
WAUKEGAN       CLOUDY    50  46  86 SW12      29.80F
DUPAGE AIRPORT CLOUDY    50  46  86 S14       29.81F
WHEELING       CLOUDY    52  47  83 S14       29.84F
KANKAKEE*      CLOUDY    48  46  91 S10       29.87F
MORRIS*        CLOUDY    50  48  91 S10       29.82F
LEWIS AIRPORT* CLOUDY    50  46  84 S14       29.83F
NORTHERLY IS     N/A     51  45  79 S13         N/A
$$

WIZ051-052-058>065-066-070>072-230800-
SOUTHEAST WISCONSIN

CITY           SKY/WX    TMP DP  RH WIND       PRES   REMARKS
MILWAUKEE      CLOUDY    48  45  89 S10       29.78F
KENOSHA*       MOCLDY    50  47  89 SW15      29.79F
RACINE*        CLOUDY    50  46  86 SW12      29.80F
BURLINGTON     CLOUDY    47  46  93 S12       29.78F
WAUKESHA       CLOUDY    46  45  93 S8        29.77F
WEST BEND      CLOUDY    48  45  87 S9        29.73F
$$

INZ001>003-010>013-019-020-230800-
NORTHWEST INDIANA

CITY           SKY/WX    TMP DP  RH WIND       PRES   REMARKS
GARY*          CLOUDY    52  46  81 S8        29.87F
MICHIGAN CITY* NOT AVBL
RENSSELAER*    NOT AVBL
VALPARAISO     CLOUDY    49  45  86 S13       29.89F
$$

LMZ740>746-230800-
SOUTHERN LAKE MICHIGAN

STATION/POSITION TIME  SKY/WX   TEMP WIND        PRES    VSBY
                                AIR  DIR/SP/G
                 (UTC)          (F)  (DEG/KT/KT) (MB)    (MI)
HARRISON CRIB    0700            50  200/ 24/ 30   N/A
BURNHAM HARBOR   0700            51  170/ 12/ 18   N/A
CALUMET HARBOR   0700            49  180/  7/ 12 1009.9F
BURNS HARBOR     NOT AVBL
MICHIGAN CITY    0700            51  170/ 17/ 23   N/A
$$

ABBREVIATIONS USED IN REMARKS
   TC - TEMPERATURE IN CELSIUS
  WCI - WIND CHILL INDEX
   HX - HEAT INDEX
  VSB - VISIBILITY
$$


USA.gov is the U.S. government's official web portal to all federal, state and local government web resources and services.